Location: Newark
(36.0797°N, 3.9744°E)
Time: 00:03:24
(UTC+00:00)

Vanguard 2 Rocket - Pass Details

Date: 14 December 2019
Orbit: 554 x 3326 km, 32.9° (Epoch: 17 January)

Event Time Altitude Azimuth Distance (km) Brightness Sun altitude
Rises 13:49:29 0° 213° (SSW) 7,250 13.0 23.1°
Reaches altitude 10° 13:55:04 10° 205° (SSW) 6,277 13.1 22.5°
Maximum altitude 14:11:59 36° 148° (SSE) 4,057 10.7 20.5°
Drops below altitude 10° 14:24:51 10° 89° (E) 4,851 10.3 18.9°
Sets 14:28:26 0° 81° (E) 5,503 10.5 18.4°
